Williams, AZ

9:06 PM MST on February 19, 2017 (GMT -0700)
Williams

Weather History for KCMR - June, 2013

Change the Weather History Date:

Thursday, June 13, 2013

  Actual Average (K40G) Record (K40G)
Temperature  
Mean Temperature 70 °F -  
Max Temperature 84 °F 73 °F 77 °F (2000)
Min Temperature 55 °F 66 °F 51 °F (1998)
Cooling Degree Days 4    
Growing Degree Days 20 (Base 50)    
Moisture  
Dew Point 29 °F    
Average Humidity 22    
Maximum Humidity 36    
Minimum Humidity 13    
Precipitation  
Precipitation 0.00 in - - ()
Sea Level Pressure  
Sea Level Pressure 30.27 in    
Wind  
Wind Speed 10 mph (SSW)    
Max Wind Speed 25 mph    
Max Gust Speed 32 mph    
Visibility 10 miles    
Events      
Averages and records for this station are not official NWS values.
T = Trace of Precipitation, MM = Missing Value Source: NWS Daily Summary

Daily Weather History Graph

Daily Weather History Graph

Search for Another Location

Airport or City:

Trip Planner

Search our weather history database for the weather conditions in past years. The results will help you decide how hot, cold, wet, or windy it might be!

Date:

Astronomy

Jun. 13, 2013 Rise Set
Actual Time 5:13 AM MST 7:44 PM MST
Civil Twilight 4:43 AM MST 8:14 PM MST
Nautical Twilight 4:06 AM MST 8:51 PM MST
Astronomical Twilight 3:25 AM MST 9:32 PM MST
Moon 9:45 AM MST (6/13) 11:02 PM MST (6/13)
Length of Visible Light 15h 30m
Length of Day
14h 31m
Waxing Crescent, 22% of the Moon is Illuminated
Jun 13
Waxing Crescent
Jun 16
First Quarter
Jun 23
Full
Jun 29
Last Quarter
Jul 8
New

Hourly Weather History & Observations

Time (MST) Temp. Dew Point Humidity Pressure Visibility Wind Dir Wind Speed Gust Speed Precip Events Conditions
12:15 AM 62.6 °F 26.6 °F 26% 30.30 in 10.0 mi South 5.8 mph - N/A   Clear
12:35 AM 64.4 °F 28.4 °F 26% 30.30 in 10.0 mi South 5.8 mph - N/A   Clear
12:55 AM 59.0 °F 26.6 °F 29% 30.30 in 10.0 mi SSE 5.8 mph - N/A   Clear
1:15 AM 59.0 °F 28.4 °F 31% 30.29 in 10.0 mi SE 5.8 mph - N/A   Clear
1:35 AM 59.0 °F 28.4 °F 31% 30.29 in 10.0 mi SSE 5.8 mph - N/A   Clear
1:55 AM 59.0 °F 28.4 °F 31% 30.29 in 10.0 mi SSE 4.6 mph - N/A   Clear
2:15 AM 60.8 °F 28.4 °F 29% 30.29 in 10.0 mi SSE 4.6 mph - N/A   Clear
2:35 AM 59.0 °F 28.4 °F 31% 30.28 in 10.0 mi South 5.8 mph - N/A   Clear
2:55 AM 57.2 °F 28.4 °F 33% 30.28 in 10.0 mi South 5.8 mph - N/A   Clear
3:15 AM 57.2 °F 28.4 °F 33% 30.27 in 10.0 mi SE 9.2 mph - N/A   Clear
3:35 AM 59.0 °F 28.4 °F 31% 30.27 in 10.0 mi SSE 6.9 mph - N/A   Clear
3:55 AM 57.2 °F 28.4 °F 33% 30.27 in 10.0 mi SE 5.8 mph - N/A   Clear
4:15 AM 57.2 °F 28.4 °F 33% 30.27 in 10.0 mi SE 8.1 mph - N/A   Clear
4:35 AM 57.2 °F 28.4 °F 33% 30.26 in 10.0 mi South 4.6 mph - N/A   Clear
4:55 AM 55.4 °F 28.4 °F 36% 30.27 in 10.0 mi SE 5.8 mph - N/A   Clear
5:15 AM 55.4 °F 28.4 °F 36% 30.27 in 10.0 mi SSE 5.8 mph - N/A   Clear
5:35 AM 62.6 °F 33.8 °F 34% 30.28 in 10.0 mi South 8.1 mph - N/A   Clear
5:55 AM 66.2 °F 33.8 °F 30% 30.28 in 10.0 mi South 10.4 mph - N/A   Clear
6:15 AM 68.0 °F 32.0 °F 26% 30.28 in 10.0 mi South 10.4 mph - N/A   Clear
6:35 AM 68.0 °F 35.6 °F 30% 30.28 in 10.0 mi South 10.4 mph - N/A   Clear
6:55 AM 69.8 °F 37.4 °F 31% 30.28 in 10.0 mi South 12.7 mph 17.3 mph N/A   Clear
7:15 AM 69.8 °F 37.4 °F 31% 30.29 in 10.0 mi South 13.8 mph - N/A   Clear
7:35 AM 69.8 °F 35.6 °F 28% 30.29 in 10.0 mi South 11.5 mph 20.7 mph N/A   Clear
7:55 AM 71.6 °F 37.4 °F 29% 30.30 in 10.0 mi South 16.1 mph 23.0 mph N/A   Clear
8:15 AM 73.4 °F 37.4 °F 27% 30.30 in 10.0 mi SSW 17.3 mph 23.0 mph N/A   Clear
8:35 AM 75.2 °F 37.4 °F 25% 30.31 in 10.0 mi South 15.0 mph 21.9 mph N/A   Clear
8:55 AM 73.4 °F 37.4 °F 27% 30.31 in 10.0 mi South 15.0 mph 23.0 mph N/A   Clear
9:15 AM 75.2 °F 37.4 °F 25% 30.31 in 10.0 mi South 17.3 mph 23.0 mph N/A   Clear
9:35 AM 75.2 °F 37.4 °F 25% 30.31 in 10.0 mi SSW 12.7 mph 24.2 mph N/A   Clear
9:55 AM 75.2 °F 35.6 °F 24% 30.31 in 10.0 mi SSW 13.8 mph 24.2 mph N/A   Clear
10:15 AM 77.0 °F 37.4 °F 24% 30.31 in 10.0 mi South 12.7 mph 26.5 mph N/A   Clear
10:35 AM 78.8 °F 35.6 °F 21% 30.31 in 10.0 mi SSW 16.1 mph 21.9 mph N/A   Clear
10:55 AM 78.8 °F 33.8 °F 20% 30.32 in 10.0 mi SW 16.1 mph 27.6 mph N/A   Clear
11:15 AM 78.8 °F 32.0 °F 18% 30.32 in 10.0 mi South 18.4 mph 24.2 mph N/A   Clear
11:35 AM 80.6 °F 33.8 °F 18% 30.32 in 10.0 mi SW 23.0 mph 28.8 mph N/A   Clear
11:55 AM 80.6 °F 35.6 °F 20% 30.31 in 10.0 mi South 19.6 mph 31.1 mph N/A   Clear
12:15 PM 80.6 °F 35.6 °F 20% 30.31 in 10.0 mi South 18.4 mph 25.3 mph N/A   Clear
12:35 PM 82.4 °F 35.6 °F 19% 30.30 in 10.0 mi SSW 13.8 mph 31.1 mph N/A   Clear
12:55 PM 84.2 °F 32.0 °F 15% 30.29 in 10.0 mi SSW 12.7 mph 27.6 mph N/A   Clear
1:15 PM 82.4 °F 32.0 °F 16% 30.29 in 10.0 mi SW 13.8 mph 29.9 mph N/A   Clear
1:35 PM 84.2 °F 30.2 °F 14% 30.29 in 10.0 mi SSW 17.3 mph 27.6 mph N/A   Clear
1:55 PM 84.2 °F 28.4 °F 13% 30.28 in 10.0 mi WSW 24.2 mph 31.1 mph N/A   Clear
2:15 PM 84.2 °F 28.4 °F 13% 30.28 in 10.0 mi SSW 18.4 mph 29.9 mph N/A   Clear
2:35 PM 82.4 °F 28.4 °F 14% 30.28 in 10.0 mi SW 19.6 mph 27.6 mph N/A   Clear
2:55 PM 82.4 °F 26.6 °F 13% 30.27 in 10.0 mi SW 25.3 mph 32.2 mph N/A   Clear
3:15 PM 82.4 °F 26.6 °F 13% 30.27 in 10.0 mi SSW 15.0 mph 27.6 mph N/A   Clear
3:35 PM 82.4 °F 26.6 °F 13% 30.26 in 10.0 mi SSW 17.3 mph 31.1 mph N/A   Clear
3:55 PM 82.4 °F 26.6 °F 13% 30.26 in 10.0 mi SW 18.4 mph 32.2 mph N/A   Clear
4:15 PM 82.4 °F 26.6 °F 13% 30.25 in 10.0 mi SW 20.7 mph 27.6 mph N/A   Clear
4:35 PM 82.4 °F 26.6 °F 13% 30.24 in 10.0 mi SW 15.0 mph 26.5 mph N/A   Clear
4:55 PM 82.4 °F 26.6 °F 13% 30.24 in 10.0 mi SW 12.7 mph 21.9 mph N/A   Clear
5:15 PM 82.4 °F 26.6 °F 13% 30.23 in 10.0 mi SW 17.3 mph 27.6 mph N/A   Clear
5:35 PM 82.4 °F 26.6 °F 13% 30.22 in 10.0 mi SW 17.3 mph 25.3 mph N/A   Clear
5:55 PM 80.6 °F 24.8 °F 13% 30.22 in 10.0 mi WSW 19.6 mph 26.5 mph N/A   Clear
6:15 PM 80.6 °F 24.8 °F 13% 30.22 in 10.0 mi SW 21.9 mph 26.5 mph N/A   Clear
6:35 PM 78.8 °F 23.0 °F 13% 30.22 in 10.0 mi SSW 13.8 mph 24.2 mph N/A   Clear
6:55 PM 77.0 °F 23.0 °F 13% 30.22 in 10.0 mi SSW 15.0 mph 19.6 mph N/A   Clear
7:15 PM 77.0 °F 24.8 °F 14% 30.23 in 10.0 mi SW 10.4 mph 19.6 mph N/A   Clear
7:35 PM 75.2 °F 23.0 °F 14% 30.23 in 10.0 mi SW 11.5 mph - N/A   Clear
7:55 PM 73.4 °F 24.8 °F 16% 30.23 in 10.0 mi SW 10.4 mph - N/A   Clear
8:15 PM 73.4 °F 24.8 °F 16% 30.23 in 10.0 mi SSW 10.4 mph - N/A   Clear
8:35 PM 71.6 °F 24.8 °F 17% 30.24 in 10.0 mi SSW 8.1 mph - N/A   Clear
8:55 PM 68.0 °F 24.8 °F 20% 30.24 in 10.0 mi SW 5.8 mph - N/A   Clear
9:15 PM 68.0 °F 24.8 °F 20% 30.25 in 10.0 mi SW 5.8 mph - N/A   Clear
9:35 PM 66.2 °F 24.8 °F 21% 30.25 in 10.0 mi SW 6.9 mph - N/A   Clear
9:55 PM 66.2 °F 24.8 °F 21% 30.25 in 10.0 mi SSW 8.1 mph - N/A   Clear
10:15 PM 66.2 °F 24.8 °F 21% 30.25 in 10.0 mi SW 6.9 mph - N/A   Clear
10:35 PM 66.2 °F 24.8 °F 21% 30.25 in 10.0 mi SW 5.8 mph - N/A   Clear
10:55 PM 64.4 °F 24.8 °F 22% 30.25 in 10.0 mi SSW 6.9 mph - N/A   Clear
11:15 PM 64.4 °F 24.8 °F 22% 30.25 in 10.0 mi SSW 5.8 mph - N/A   Clear
11:35 PM 62.6 °F 24.8 °F 24% 30.25 in 10.0 mi SW 5.8 mph - N/A   Clear
11:55 PM 62.6 °F 24.8 °F 24% 30.25 in 10.0 mi SSW 4.6 mph - N/A   Clear